Hutchinson, KS

1:12 AM CDT on October 23, 2019 (GMT -0500)
Hutchinson Municipal

Weather History for KHUT - September, 2019

Change the Weather History Date:

Saturday, September 21, 2019

  Actual Average Record
Temperature  
Mean Temperature 80 °F -  
Max Temperature 91 °F 77 °F 99 °F (2017)
Min Temperature 69 °F 51 °F 35 °F (2000)
Cooling Degree Days 14    
Growing Degree Days 30 (Base 50)    
Moisture  
Dew Point 68 °F    
Average Humidity 75    
Maximum Humidity 91    
Minimum Humidity 45    
Precipitation  
Precipitation 0.00 in - - ()
Sea Level Pressure  
Sea Level Pressure 29.85 in    
Wind  
Wind Speed 15 mph (South)    
Max Wind Speed 24 mph    
Max Gust Speed 33 mph    
Visibility 10 miles    
Events      
Averages and records for this station are not official NWS values.
T = Trace of Precipitation, MM = Missing Value Source: NWS Daily Summary

Daily Weather History Graph

Daily Weather History Graph

Search for Another Location

Airport or City:

Astronomy

Sep. 21, 2019 Rise Set
Actual Time 7:18 AM CDT 7:30 PM CDT
Civil Twilight 6:51 AM CDT 7:56 PM CDT
Nautical Twilight 6:21 AM CDT 8:27 PM CDT
Astronomical Twilight 5:49 AM CDT 8:58 PM CDT
Moon No Moon Rise 2:19 PM CDT (9/21)
Length of Visible Light 13h 04m
Length of Day
12h 12m
Waning Gibbous, 54% of the Moon is Illuminated
Sep 21
Waning Gibbous
Sep 21
Last Quarter
Sep 28
New
Oct 5
First Quarter
Oct 13
Full

Hourly Weather History & Observations

Time (CDT) Temp. Heat Index Dew Point Humidity Pressure Visibility Wind Dir Wind Speed Gust Speed Precip Events Conditions
12:26 AM 73.9 °F - 69.1 °F 85% 29.90 in 10.0 mi South 15.0 mph - N/A   Scattered Clouds
12:52 AM 73.9 °F - 69.1 °F 85% 29.84 in 10.0 mi South 12.7 mph 24.2 mph N/A   Scattered Clouds
1:52 AM 73.0 °F - 69.1 °F 87% 29.84 in 10.0 mi South 13.8 mph - N/A   Scattered Clouds
2:14 AM 72.0 °F - 69.1 °F 91% 29.90 in 10.0 mi South 15.0 mph - N/A   Mostly Cloudy
2:52 AM 72.0 °F - 68.0 °F 87% 29.83 in 10.0 mi South 13.8 mph - N/A   Mostly Cloudy
2:59 AM 72.0 °F - 68.0 °F 87% 29.90 in 10.0 mi SSE 12.7 mph - N/A   Scattered Clouds
3:42 AM 71.1 °F - 68.0 °F 90% 29.89 in 10.0 mi SSE 12.7 mph - N/A   Partly Cloudy
3:52 AM 71.1 °F - 68.0 °F 90% 29.83 in 10.0 mi SSE 13.8 mph - N/A   Partly Cloudy
4:52 AM 70.0 °F - 66.9 °F 90% 29.84 in 10.0 mi South 11.5 mph - N/A   Clear
5:52 AM 69.1 °F - 66.0 °F 90% 29.84 in 10.0 mi SSE 9.2 mph - N/A   Clear
6:52 AM 69.1 °F - 66.0 °F 90% 29.86 in 10.0 mi South 10.4 mph - N/A   Clear
7:26 AM 69.1 °F - 66.0 °F 90% 29.92 in 10.0 mi South 10.4 mph - N/A   Mostly Cloudy
7:52 AM 70.0 °F - 66.0 °F 87% 29.86 in 10.0 mi South 11.5 mph - N/A   Overcast
8:52 AM 72.0 °F - 66.9 °F 84% 29.88 in 10.0 mi South 16.1 mph - N/A   Overcast
9:42 AM 75.9 °F - 68.0 °F 76% 29.93 in 10.0 mi South 16.1 mph 25.3 mph N/A   Scattered Clouds
9:52 AM 75.0 °F - 68.0 °F 79% 29.87 in 10.0 mi South 15.0 mph - N/A   Mostly Cloudy
10:52 AM 77.0 °F - 69.1 °F 76% 29.87 in 10.0 mi South 13.8 mph - N/A   Mostly Cloudy
10:59 AM 78.1 °F - 69.1 °F 74% 29.94 in 10.0 mi South 18.4 mph 24.2 mph N/A   Overcast
11:17 AM 78.1 °F - 69.1 °F 74% 29.94 in 10.0 mi SSW 16.1 mph - N/A   Mostly Cloudy
11:24 AM 78.1 °F - 69.1 °F 74% 29.94 in 10.0 mi SSW 19.6 mph 27.6 mph N/A   Mostly Cloudy
11:34 AM 78.1 °F - 69.1 °F 74% 29.94 in 10.0 mi SSW 15.0 mph - N/A   Scattered Clouds
11:52 AM 78.1 °F - 68.0 °F 71% 29.87 in 10.0 mi SSW 18.4 mph 26.5 mph N/A   Scattered Clouds
12:52 PM 79.0 °F - 66.9 °F 66% 29.85 in 10.0 mi SSW 19.6 mph 31.1 mph 0.00 in   Partly Cloudy
1:52 PM 87.1 °F 90.6 °F 68.0 °F 53% 29.81 in 10.0 mi South 17.3 mph 29.9 mph N/A   Clear
2:52 PM 88.0 °F 89.3 °F 64.0 °F 45% 29.80 in 10.0 mi South 24.2 mph - N/A   Clear
3:52 PM 90.0 °F 93.6 °F 68.0 °F 48% 29.78 in 10.0 mi SSW 23.0 mph 32.2 mph N/A   Clear
4:52 PM 88.0 °F 92.1 °F 69.1 °F 53% 29.77 in 10.0 mi South 23.0 mph 31.1 mph N/A   Mostly Cloudy
6:52 PM 84.0 °F 87.0 °F 68.0 °F 58% 29.77 in 10.0 mi South 20.7 mph 29.9 mph N/A   Partly Cloudy
7:52 PM 82.0 °F 85.5 °F 69.1 °F 65% 29.78 in 10.0 mi SSE 16.1 mph 27.6 mph N/A   Mostly Cloudy
8:52 PM 81.0 °F 83.8 °F 68.0 °F 65% 29.80 in 10.0 mi South 15.0 mph - N/A   Scattered Clouds
9:52 PM 81.0 °F 83.8 °F 68.0 °F 65% 29.80 in 10.0 mi South 13.8 mph - N/A   Mostly Cloudy
10:52 PM 80.1 °F 82.7 °F 68.0 °F 67% 29.80 in 10.0 mi South 15.0 mph 33.4 mph N/A   Clear
11:52 PM 79.0 °F - 69.1 °F 72% 29.82 in 10.0 mi South 13.8 mph - N/A   Mostly Cloudy